Flag for Niger Weather past 2 weeks in Niamey, Niger

Now
99 °F

Clear.


Feels Like: 93 °F
Forecast: 81 / 100 °F
Wind: 14 mph from East

Location: Niamey-Aero

Current Time: Mar 31, 2015 at 6:56:43 PM

Latest Report: Mar 31, 2015 at 6:00 PM


Visibility: 4 mi

Pressure: 29.80 "Hg

Humidity: 7%

Dew point: 23 °F

Location of NiameyLocation

Historic Weather in Niamey — Graph

°F

Niamey temperature yesterday

Maximum temperature yesterday: 100 °F (at 5:00 PM)
Minimum temperature yesterday: 70 °F (at 6:00 AM)
Average temperature yesterday: 87 °F

Past Weeks' High & Low Weather Summary

 TemperatureHumidityPressure
High108 °F (Mar 23, 4:00 PM)43% (Mar 24, 6:00 AM)30.01 "Hg (Mar 24, 6:00 AM)
Low68 °F (Mar 29, 7:00 AM)4% (Mar 27, 1:00 PM)29.65 "Hg (Mar 19, 3:00 PM)
Average92 °F14%29.81 "Hg
* Reported Mar 16 5:00 PM — Mar 31 5:00 PM, Niamey, Weather by CustomWeather, © 2015

Note: Actual official high and low records may vary slightly from our data, if they occured in-between our weather recording intervals... More about our weather records

Advertising

Niamey weather history for previous 24 hours

 ConditionsComfort  
Time TempWeatherWind HumidityBarometerVisibility
5:00 PM
Tue, Mar 31
99 °FClear.16 mph7%29.80 "Hg4 mi
4:00 PM100 °FClear.16 mph7%29.83 "Hg4 mi
3:00 PM100 °FClear.13 mph6%29.83 "Hg4 mi
2:00 PM99 °FClear.15 mph6%29.86 "Hg4 mi
1:00 PM99 °FLow level haze.17 mph5%29.92 "Hg2 mi
12:00 PM95 °FLow level haze.20 mph5%29.95 "Hg3 mi
11:00 AM91 °FLow level haze.17 mph6%29.98 "Hg3 mi
10:00 AM88 °FLow level haze.17 mph7%29.98 "Hg3 mi
9:00 AM82 °FDuststorm.14 mph9%29.95 "Hg3 mi
8:00 AM79 °FDuststorm.7 mph11%29.92 "Hg3 mi
7:00 AM77 °FClear.5 mph11%29.89 "Hg4 mi
6:00 AM77 °FClear.7 mph12%29.86 "Hg10 mi
5:00 AM79 °FClear.7 mph10%29.83 "Hg10 mi
4:00 AM77 °FClear.1 mph13%29.83 "Hg10 mi
3:00 AM77 °FClear.No wind12%29.83 "Hg10 mi
2:00 AM81 °FClear.3 mph10%29.86 "Hg5 mi
1:00 AM82 °FClear.2 mph10%29.86 "Hg5 mi
12:00 AM84 °FClear.3 mph10%29.86 "Hg5 mi
11:00 PM
Mon, Mar 30
86 °FClear.5 mph9%29.86 "Hg5 mi
10:00 PM88 °FClear.3 mph8%29.86 "Hg5 mi
9:00 PM90 °FClear.3 mph7%29.83 "Hg10 mi
8:00 PM91 °FClear.No wind7%29.80 "Hg5 mi
7:00 PM97 °FClear.5 mph5%29.77 "Hg5 mi
6:00 PM99 °FClear.5 mph5%29.77 "Hg5 mi
Weather by CustomWeather, © 2015

See weather overviewHow to use our weather pages